Weather History for Ft Pierce, FL

Change the Weather History Date:

Tuesday, October 29, 2013

  Actual Average Record
Temperature  
Mean Temperature 72 °F -  
Max Temperature 84 °F 83 °F 91 °F (1941)
Min Temperature 61 °F 64 °F 46 °F (2008)
Cooling Degree Days 6    
Growing Degree Days 22 (Base 50)    
Moisture  
Dew Point 64 °F    
Average Humidity 72    
Maximum Humidity 93    
Minimum Humidity 51    
Precipitation  
Precipitation 0.01 in - - ()
Sea Level Pressure  
Sea Level Pressure 30.16 in    
Wind  
Wind Speed 4 mph (ENE)    
Max Wind Speed 14 mph    
Max Gust Speed 18 mph    
Visibility 9 miles    
Events Rain    
Averages and records for this station are not official NWS values.
T = Trace of Precipitation, MM = Missing Value Source: NWS Daily Summary

Daily Weather History Graph

Daily Weather History Graph

Search for Another Location

Airport:

Trip Planner

Search our weather history database for the weather conditions in past years. The results will help you decide how hot, cold, wet, or windy it might be!

Date:

Astronomy

Oct. 29, 2013 Rise Set
Actual Time 7:30 AM EDT 6:39 PM EDT
Civil Twilight 7:06 AM EDT 7:03 PM EDT
Nautical Twilight 6:38 AM EDT 7:31 PM EDT
Astronomical Twilight 6:11 AM EDT 7:58 PM EDT
Moon 2:44 AM EDT (10/29) 3:29 PM EDT (10/29)
Length of Visible Light 11h 57m
Length of Day
11h 09m
Waning Crescent, 25% of the Moon is Illuminated
Oct 29
Waning Crescent
Nov 3
New
Nov 10
First Quarter
Nov 17
Full
Nov 25
Last Quarter

Hourly Weather History & Observations

Time (EDT) Temp. Heat Index Dew Point Humidity Pressure Visibility Wind Dir Wind Speed Gust Speed Precip Events Conditions
12:53 AM 62.1 °F - 60.1 °F 93% 30.16 in 6.0 mi Calm Calm - N/A   Clear
1:53 AM 62.1 °F - 60.1 °F 93% 30.15 in 4.0 mi Calm Calm - N/A   Clear
2:53 AM 61.0 °F - 59.0 °F 93% 30.13 in 6.0 mi NW 3.5 mph - N/A   Clear
3:53 AM 63.0 °F - 61.0 °F 93% 30.12 in 8.0 mi Calm Calm - N/A   Clear
4:53 AM 64.9 °F - 62.1 °F 90% 30.12 in 10.0 mi Calm Calm - N/A   Mostly Cloudy
5:53 AM 64.9 °F - 62.1 °F 90% 30.14 in 8.0 mi NW 3.5 mph - N/A   Mostly Cloudy
6:53 AM 68.0 °F - 64.9 °F 90% 30.16 in 10.0 mi Calm Calm - 0.00 in Rain Light Rain
7:53 AM 66.9 °F - 64.0 °F 90% 30.17 in 7.0 mi WNW 5.8 mph - 0.00 in   Scattered Clouds
8:53 AM 72.0 °F - 66.9 °F 84% 30.19 in 10.0 mi Calm Calm - N/A   Scattered Clouds
9:53 AM 80.1 °F 81.9 °F 64.9 °F 60% 30.19 in 10.0 mi NE 10.4 mph - N/A   Partly Cloudy
10:53 AM 81.0 °F 83.0 °F 66.0 °F 60% 30.20 in 10.0 mi ENE 9.2 mph - N/A   Mostly Cloudy
11:53 AM 82.9 °F 84.6 °F 64.9 °F 54% 30.19 in 10.0 mi East 11.5 mph 18.4 mph N/A   Scattered Clouds
12:53 PM 82.0 °F 83.8 °F 64.9 °F 56% 30.18 in 10.0 mi East 13.8 mph - N/A   Scattered Clouds
1:53 PM 82.9 °F 84.4 °F 64.0 °F 53% 30.16 in 10.0 mi ENE 11.5 mph 18.4 mph N/A   Partly Cloudy
2:53 PM 82.9 °F 84.4 °F 64.0 °F 53% 30.14 in 10.0 mi NE 8.1 mph 18.4 mph N/A   Scattered Clouds
3:53 PM 82.0 °F 83.1 °F 63.0 °F 52% 30.13 in 10.0 mi NE 10.4 mph 17.3 mph N/A   Scattered Clouds
4:53 PM 82.0 °F 83.0 °F 62.1 °F 51% 30.14 in 10.0 mi NE 6.9 mph - N/A   Clear
5:53 PM 80.1 °F 81.5 °F 63.0 °F 56% 30.14 in 10.0 mi NE 4.6 mph - N/A   Partly Cloudy
6:53 PM 75.9 °F - 64.0 °F 67% 30.16 in 10.0 mi Calm Calm - N/A   Clear
7:53 PM 75.9 °F - 66.9 °F 74% 30.17 in 10.0 mi ENE 8.1 mph - 0.00 in   Partly Cloudy
8:53 PM 75.9 °F - 64.9 °F 69% 30.18 in 10.0 mi East 11.5 mph - N/A   Mostly Cloudy
9:53 PM 75.9 °F - 66.0 °F 71% 30.19 in 10.0 mi East 8.1 mph - 0.00 in Rain Light Rain
10:53 PM 77.0 °F - 64.0 °F 64% 30.19 in 10.0 mi East 9.2 mph - 0.01 in   Mostly Cloudy
11:53 PM 77.0 °F - 64.9 °F 66% 30.19 in 10.0 mi East 10.4 mph - N/A   Mostly Cloudy